Погода в Путиле

Украина / Черновицкая область     47°59′42″N   25°06′13″E
темп.,
°C
ветер,
м/с
пор.,
м/с
влажн.,
%
обл.,
%
осадки,
мм/ч
давл.,
гПа
погр.,
м
15 августа, пн
пн1500:00+13юз1194100 0.2 101111
03:00+13юз1194100 0.2 101011
06:00+13юз1193100 0.1 101010
09:00+17з1187100 0.1 1009124
12:00+20с1265100 0.3 1009697
15:00+23ссв3352100 0.3 10081575
18:00+19св1378100 0.8 1009318
21:00+15зюз2189100 1.0 100911
16 августа, вт
вт1600:00+14юз1191100 0.0 101012
03:00+13юз2190100 0.0 101014
06:00+14юз2188100 0.0 100920
09:00+18зюз1278100 0.1 1009124
12:00+20с2374100 1.4 1009564
15:00+19з1182100 5.6 1009107
18:00+18юз229099 2.1 1010113
21:00+14юз229596 2.5 101147
17 августа, ср
ср1700:00+13юз229543 0.1 101126
03:00+12юз22936 0.1 101019
06:00+11юз219413 0.0 101114
09:00+17з118180 0.0 1011197
12:00+22с235949 0.2 10101294
15:00+17с1393100 3.4 1012162
18:00+18с239044 3.9 1012277
21:00+14зюз11945 4.8 101310
18 августа, чт
чт1800:00+13зюз11955 0.0 101411
03:00+13зюз11964 0.0 101311
06:00+12зюз119664 0.0 101411
09:00+16з119254 0.0 1014105
12:00+21с236326 0.4 10131219
15:00+21ссв247037 1.6 1013977
18:00+22ссв246434 0.6 1013831
21:00+16зюз11840 0.7 101411
19 августа, пт
пт1900:00+15юз21900 0.0 101512
03:00+14юз21925 0.0 101412
06:00+14юз219315 0.0 101413
09:00+19ю007363 0.0 1014161
12:00+25св11475 0.0 10131327
15:00+27св22395 0.0 10121991
18:00+25всв334928 0.0 1012755
21:00+18ю22760 0.0 101314